Flag for Norway Weather past 2 weeks in Førde, Norway

Now
16 °F

Sunny.


Feels Like: 8 °F
Forecast: 13 / 24 °F
Wind: 5 mph from Northwest

Location: Forde / Bringeland

Current Time: Dec 27, 2014 at 11:57:48 AM

Latest Report: Dec 27, 2014 at 10:50 AM


Visibility: 10 mi

Pressure: 29.89 "Hg

Humidity: 93%

Dew point: 14 °F

Location of FørdeLocation

Historic Weather in Førde — Graph

°F

Førde temperature yesterday

Maximum temperature yesterday: 27 °F (at 1:50 PM)
Minimum temperature yesterday: 19 °F (at 11:20 PM)
Average temperature yesterday: 24 °F

Past Weeks' High & Low Weather Summary

 TemperatureHumidityPressure
High39 °F (Dec 14, 3:50 PM)100% (Dec 12, 10:20 AM)29.98 "Hg (Dec 12, 10:20 AM)
Low16 °F (Dec 27, 7:50 AM)74% (Dec 24, 11:50 AM)28.82 "Hg (Dec 12, 6:50 PM)
Average31 °F95%29.19 "Hg
* Reported Dec 12 10:20 AM — Dec 27 10:20 AM, Førde, Weather by CustomWeather, © 2014

Note: Actual official high and low records may vary slightly from our data, if they occured in-between our weather recording intervals... More about our weather records

Advertising

Førde weather history for previous 24 hours

 ConditionsComfort  
Time TempWeatherWind HumidityBarometerVisibility
10:20 AM
Dec 27
16 °FPassing clouds.5 mph93%29.89 "HgN/A
9:50 AM18 °FPassing clouds.5 mph86%29.89 "HgN/A
9:20 AM18 °FPassing clouds.5 mph86%29.86 "HgN/A
8:50 AM18 °FClear.3 mph86%29.86 "Hg10 mi
7:50 AM16 °FClear.5 mph93%29.86 "Hg10 mi
11:20 PM
Dec 26
19 °FPassing clouds.2 mph93%29.92 "HgN/A
10:20 PM21 °FCold.N/A86%29.92 "HgN/A
9:20 PM23 °FSleet. Overcast.2 mph93%29.95 "HgN/A
8:50 PM23 °FCold.3 mph93%29.95 "Hg2 mi
7:50 PM23 °FPassing clouds.No wind100%29.95 "HgN/A
7:20 PM25 °FPassing clouds.5 mph93%29.95 "HgN/A
6:50 PM25 °FPassing clouds.5 mph93%29.95 "HgN/A
6:20 PM25 °FPassing clouds.10 mph93%29.95 "Hg2 mi
4:50 PM23 °FSleet. Fog.7 mph100%29.98 "HgN/A
3:50 PM23 °FFog.5 mph93%29.98 "HgN/A
2:50 PM27 °FMixture of precip. Scattered clouds.1 mph93%29.95 "HgN/A
1:50 PM27 °FSnow flurries. Broken clouds.3 mph93%29.95 "Hg4 mi
12:50 PM25 °FSleet. Broken clouds.2 mph100%29.95 "Hg4 mi
11:50 AM25 °FSnow flurries. Ice fog.3 mph93%29.98 "Hg2 mi
Weather by CustomWeather, © 2014

See weather overviewHow to use our weather pages